Farmville, Virginia, United States (23901)
Lat: 37.30N, Lon: 78.39W
Wx Zone: VAZ060
Local Info
Past Weather Observations for Yesterday

NOTE: This archive is for the closest National Weather Service station to Farmville. Information may differ from the station used for current weather conditions.

Click here for Long-term Archive

Time Weather Temperature Dewpoint Humidity Pressure Winds Precip Visibility
23:55
Clear
39°F / 4°C 39°F / 4°C 100% 30.04 in
(1017 mb)
Calm - 10SM
23:35
Clear
39°F / 4°C 37°F / 3°C 93% 30.04 in
(1017 mb)
Calm - 10SM
23:15
Clear
39°F / 4°C 36°F / 2°C 87% 30.04 in
(1017 mb)
Calm - 10SM
22:55
Clear
43°F / 6°C 36°F / 2°C 76% 30.04 in
(1017 mb)
N 3.5 mph
(N 6 kph)
- 10SM
22:35
Clear
43°F / 6°C 36°F / 2°C 76% 30.04 in
(1017 mb)
N 3.5 mph
(N 6 kph)
- 10SM
22:15
Clear
43°F / 6°C 36°F / 2°C 76% 30.04 in
(1017 mb)
Calm - 10SM
21:55
Clear
45°F / 7°C 36°F / 2°C 71% 30.04 in
(1017 mb)
Calm - 10SM
21:35
Clear
46°F / 8°C 36°F / 2°C 66% 30.04 in
(1017 mb)
N 5.8 mph
(N 9 kph)
- 10SM
21:15
Clear
46°F / 8°C 36°F / 2°C 66% 30.04 in
(1017 mb)
N 4.6 mph
(N 7 kph)
- 10SM
20:55
Clear
45°F / 7°C 37°F / 3°C 76% 30.04 in
(1017 mb)
N 3.5 mph
(N 6 kph)
- 10SM
20:35
Clear
46°F / 8°C 37°F / 3°C 71% 30.04 in
(1017 mb)
Calm - 10SM
20:15
Clear
48°F / 9°C 37°F / 3°C 66% 30.04 in
(1017 mb)
N 3.5 mph
(N 6 kph)
- 10SM
19:55
Clear
48°F / 9°C 37°F / 3°C 66% 30.04 in
(1017 mb)
N 3.5 mph
(N 6 kph)
- 10SM
19:35
Clear
48°F / 9°C 37°F / 3°C 66% 30.04 in
(1017 mb)
N 3.5 mph
(N 6 kph)
- 10SM
19:15
Clear
50°F / 10°C 37°F / 3°C 62% 30.04 in
(1017 mb)
N 3.5 mph
(N 6 kph)
- 10SM
18:55
Clear
50°F / 10°C 37°F / 3°C 62% 30.04 in
(1017 mb)
Calm - 10SM
18:35
Clear
52°F / 11°C 37°F / 3°C 58% 30.04 in
(1017 mb)
N 3.5 mph
(N 6 kph)
- 10SM
18:15
Partly Cloudy
54°F / 12°C 37°F / 3°C 54% 30.04 in
(1017 mb)
N 3.5 mph
(N 6 kph)
- 10SM
17:55
Mostly Cloudy
54°F / 12°C 39°F / 4°C 58% 30.01 in
(1016 mb)
NNE 3.5 mph
(NNE 6 kph)
- 10SM
17:35
Mostly Cloudy
54°F / 12°C 39°F / 4°C 58% 30.01 in
(1016 mb)
NNE 4.6 mph
(NNE 7 kph)
- 10SM
17:15
Mostly Cloudy
55°F / 13°C 39°F / 4°C 55% 30.01 in
(1016 mb)
NE 5.8 mph
(NE 9 kph)
- 10SM
16:55
Overcast
57°F / 14°C 39°F / 4°C 51% 30.01 in
(1016 mb)
NE 6.9 mph
(NE 11 kph)
- 10SM
16:35
Mostly Cloudy
57°F / 14°C 39°F / 4°C 51% 30.01 in
(1016 mb)
NE 6.9 mph
(NE 11 kph)
- 10SM
16:15
Partly Cloudy
57°F / 14°C 39°F / 4°C 51% 30.01 in
(1016 mb)
NE 6.9 mph
(NE 11 kph)
- 10SM
15:55
Partly Cloudy
61°F / 16°C 39°F / 4°C 45% 29.98 in
(1015 mb)
NE 9.2 mph
(NE 15 kph)
- 10SM
15:35
Overcast
61°F / 16°C 39°F / 4°C 45% 29.98 in
(1015 mb)
NE 6.9 mph
(NE 11 kph)
- 10SM
15:15
Overcast
61°F / 16°C 39°F / 4°C 45% 29.98 in
(1015 mb)
NE 8.1 mph
(NE 13 kph)
- 10SM
14:55
Mostly Cloudy
61°F / 16°C 39°F / 4°C 45% 29.98 in
(1015 mb)
N 4.6 mph
(N 7 kph)
- 10SM
14:35
Clear
63°F / 17°C 39°F / 4°C 42% 29.98 in
(1015 mb)
Calm - 10SM
14:15
Partly Cloudy
63°F / 17°C 37°F / 3°C 39% 30.01 in
(1016 mb)
Calm - 10SM
13:55
Mostly Cloudy
63°F / 17°C 39°F / 4°C 42% 30.01 in
(1016 mb)
Calm - 10SM
13:35
Overcast
61°F / 16°C 39°F / 4°C 45% 30.01 in
(1016 mb)
NE 4.6 mph
(NE 7 kph)
- 10SM
13:15
Mostly Cloudy
64°F / 18°C 39°F / 4°C 40% 30.01 in
(1016 mb)
ENE 5.8 mph
(ENE 9 kph)
- 10SM
12:55
Mostly Cloudy
61°F / 16°C 39°F / 4°C 45% 30.01 in
(1016 mb)
NE 4.6 mph
(NE 7 kph)
- 10SM
12:35
Mostly Cloudy
63°F / 17°C 39°F / 4°C 42% 30.04 in
(1017 mb)
NNE 9.2 mph
(NNE 15 kph)
- 10SM
12:15
Partly Cloudy
61°F / 16°C 39°F / 4°C 45% 30.04 in
(1017 mb)
Calm - 10SM
11:55
Partly Cloudy
63°F / 17°C 41°F / 5°C 45% 30.04 in
(1017 mb)
NE 5.8 mph
(NE 9 kph)
- 10SM
11:35
Clear
61°F / 16°C 41°F / 5°C 48% 30.04 in
(1017 mb)
NE 4.6 mph
(NE 7 kph)
- 10SM
11:15
Clear
61°F / 16°C 43°F / 6°C 52% 30.06 in
(1018 mb)
N 6.9 mph
(N 11 kph)
- 10SM
10:55
Clear
61°F / 16°C 45°F / 7°C 55% 30.06 in
(1018 mb)
E 3.5 mph
(E 6 kph)
- 10SM
10:35
Clear
61°F / 16°C 45°F / 7°C 55% 30.06 in
(1018 mb)
ENE 4.6 mph
(ENE 7 kph)
- 10SM
10:15
Clear
59°F / 15°C 45°F / 7°C 59% 30.06 in
(1018 mb)
E 5.8 mph
(E 9 kph)
- 10SM
09:55
Clear
55°F / 13°C 45°F / 7°C 67% 30.06 in
(1018 mb)
N 3.5 mph
(N 6 kph)
- 10SM
09:35
Clear
55°F / 13°C 46°F / 8°C 72% 30.06 in
(1018 mb)
ENE 5.8 mph
(ENE 9 kph)
- 10SM
09:15
Clear
52°F / 11°C 45°F / 7°C 77% 30.06 in
(1018 mb)
NE 4.6 mph
(NE 7 kph)
- 10SM
08:55
Clear
52°F / 11°C 48°F / 9°C 88% 30.06 in
(1018 mb)
Calm - 10SM
08:35
Clear
48°F / 9°C 48°F / 9°C 100% 30.06 in
(1018 mb)
NE 3.5 mph
(NE 6 kph)
- 10SM
08:15
Clear
48°F / 9°C 46°F / 8°C 94% 30.06 in
(1018 mb)
Calm - 10SM
07:55
Clear
46°F / 8°C 46°F / 8°C 100% 30.06 in
(1018 mb)
Calm - 7SM
07:35
Clear
43°F / 6°C 43°F / 6°C 100% 30.04 in
(1017 mb)
Calm - 7SM
07:15
Mostly Cloudy
Fog
43°F / 6°C 41°F / 5°C 93% 30.04 in
(1017 mb)
Calm - 1/2SM
06:55
Partly Cloudy
43°F / 6°C 41°F / 5°C 93% 30.04 in
(1017 mb)
Calm - 7SM
06:35
Overcast
Fog
43°F / 6°C 41°F / 5°C 93% 30.04 in
(1017 mb)
Calm - 1/4SM
06:15
Overcast
Fog
43°F / 6°C 43°F / 6°C 100% 30.04 in
(1017 mb)
Calm - 1/2SM
05:55
Overcast
Fog
45°F / 7°C 43°F / 6°C 93% 30.04 in
(1017 mb)
Calm - M1/4SM
05:35
Overcast
Fog
45°F / 7°C 45°F / 7°C 100% 30.04 in
(1017 mb)
Calm - M1/4SM
05:15
Overcast
Fog
45°F / 7°C 43°F / 6°C 93% 30.01 in
(1016 mb)
Calm - 1/4SM
04:55
Overcast
Fog
45°F / 7°C 43°F / 6°C 93% 30.01 in
(1016 mb)
Calm - 1/4SM
04:35
Overcast
Fog
45°F / 7°C 45°F / 7°C 100% 30.01 in
(1016 mb)
Calm - 1/4SM
04:15
Overcast
Fog
46°F / 8°C 46°F / 8°C 100% 30.01 in
(1016 mb)
Calm - 1/2SM
03:55
Overcast
Fog
46°F / 8°C 46°F / 8°C 100% 30.01 in
(1016 mb)
Calm - 1/4SM
03:35
Overcast
Fog
46°F / 8°C 46°F / 8°C 100% 30.01 in
(1016 mb)
Calm - 1/2SM
03:15
Overcast
Fog And Mist
48°F / 9°C 48°F / 9°C 100% 30.01 in
(1016 mb)
Calm - 1SM
02:55
Overcast
Fog
48°F / 9°C 48°F / 9°C 100% 30.01 in
(1016 mb)
Calm - M1/4SM
02:35
Overcast
Fog
48°F / 9°C 46°F / 8°C 94% 30.01 in
(1016 mb)
Calm - 1/2SM
02:15
Overcast
Fog
46°F / 8°C 46°F / 8°C 100% 30.01 in
(1016 mb)
Calm - 1/2SM
01:55
Overcast
Fog
50°F / 10°C 48°F / 9°C 94% 30.01 in
(1016 mb)
Calm - 1/2SM
01:35
Mostly Cloudy
Fog And Mist
48°F / 9°C 48°F / 9°C 100% 30.01 in
(1016 mb)
Calm - 3/4SM
01:15
Mostly Cloudy
Fog And Mist
52°F / 11°C 50°F / 10°C 94% 30.01 in
(1016 mb)
Calm - 1 3/4SM
00:55
Overcast
Fog And Mist
52°F / 11°C 52°F / 11°C 100% 30.01 in
(1016 mb)
Calm - 3SM
00:35
Mostly Cloudy
54°F / 12°C 52°F / 11°C 94% 30.01 in
(1016 mb)
Calm - 10SM
00:15
Partly Cloudy
54°F / 12°C 52°F / 11°C 94% 30.01 in
(1016 mb)
Calm - 10SM
Time Weather Temperature Dewpoint Humidity Pressure Winds Precip Visibility


Weather for websites

WeatherForYou.com, LLC is not responsible for any damages or problems caused by this service. Current weather conditions are obtained from the closest station including government and personal stations which may have varying degrees of accuracy. Weather forecasts are derived from the NOAA NDFD. Like all things, this site belongs to Jesus Christ... He just trusts me to maintain it. If you have any questions or comments email webmaster@weatherforyou.com

Copyright © 2014, WeatherForYou.com LLC. All rights reserved.